Time,TemperatureF,DewpointF,PressureIn,WindDirection,WindDirectionDegrees,WindSpeedMPH,WindSpeedGustMPH,Humidity,HourlyPrecipIn,Conditions,Clouds,dailyrainin,SolarRadiationWatts/m^2,SoftwareType,DateUTC
2013-10-17 00:22:00,45.0,22.0,-100.00,NNW,340,0.0,1.0,41,-99.99,,,-99.99,0.000000,,2013-10-17 07:22:00,
2013-10-17 00:30:00,44.0,23.0,-100.00,NNW,335,1.0,2.0,42,-99.99,,,-99.99,0.000000,,2013-10-17 07:30:00,
2013-10-17 01:21:00,44.0,23.0,-100.00,NNW,335,1.0,2.0,42,-99.99,,,-99.99,0.000000,,2013-10-17 08:21:00,
2013-10-17 01:30:00,43.0,24.0,-100.00,NNW,332,1.0,1.0,47,-99.99,,,-99.99,0.000000,,2013-10-17 08:30:00,
2013-10-17 02:21:00,43.0,24.0,-100.00,NNW,332,1.0,1.0,47,-99.99,,,-99.99,0.000000,,2013-10-17 09:21:00,
2013-10-17 02:30:00,43.0,22.0,-100.00,North,0,0.0,0.0,43,-99.99,,,-99.99,0.000000,,2013-10-17 09:30:00,
2013-10-17 03:23:00,43.0,22.0,-100.00,North,0,0.0,0.0,43,-99.99,,,-99.99,0.000000,,2013-10-17 10:23:00,
2013-10-17 03:30:00,43.0,24.0,-100.00,NW,311,1.0,2.0,47,-99.99,,,-99.99,0.000000,,2013-10-17 10:30:00,
2013-10-17 04:22:00,43.0,24.0,-100.00,NW,311,1.0,2.0,47,-99.99,,,-99.99,0.000000,,2013-10-17 11:22:00,
2013-10-17 04:30:00,43.0,23.0,-100.00,NW,308,1.0,2.0,44,-99.99,,,-99.99,0.000000,,2013-10-17 11:30:00,
2013-10-17 05:22:00,43.0,23.0,-100.00,NW,308,1.0,2.0,44,-99.99,,,-99.99,0.000000,,2013-10-17 12:22:00,
2013-10-17 05:30:00,42.0,22.0,-100.00,NW,323,1.0,1.0,45,-99.99,,,-99.99,0.000000,,2013-10-17 12:30:00,
2013-10-17 06:22:00,42.0,22.0,-100.00,NW,323,1.0,1.0,45,-99.99,,,-99.99,0.000000,,2013-10-17 13:22:00,
2013-10-17 06:30:00,42.0,18.0,-100.00,ESE,114,1.0,1.0,37,-99.99,,,-99.99,0.000000,,2013-10-17 13:30:00,
2013-10-17 07:21:00,42.0,18.0,-100.00,ESE,114,1.0,1.0,37,-99.99,,,-99.99,0.000000,,2013-10-17 14:21:00,
2013-10-17 08:30:00,47.0,4.0,-100.00,NW,311,1.0,1.0,17,-99.99,,,-99.99,116.000000,,2013-10-17 15:30:00,
2013-10-17 09:23:00,47.0,4.0,-100.00,NW,311,1.0,1.0,17,-99.99,,,-99.99,116.000000,,2013-10-17 16:23:00,
2013-10-17 09:30:00,47.0,2.0,-100.00,NW,310,1.0,2.0,15,-99.99,,,-99.99,109.000000,,2013-10-17 16:30:00,
2013-10-17 10:22:00,47.0,2.0,-100.00,NW,310,1.0,2.0,15,-99.99,,,-99.99,109.000000,,2013-10-17 17:22:00,
2013-10-17 11:30:00,52.0,16.0,-100.00,SSE,151,3.0,8.0,23,-99.99,,,-99.99,485.000000,,2013-10-17 18:30:00,
2013-10-17 12:21:00,52.0,16.0,-100.00,SSE,151,3.0,8.0,23,-99.99,,,-99.99,485.000000,,2013-10-17 19:21:00,
2013-10-17 12:30:00,53.0,16.0,-100.00,West,263,3.0,6.0,23,-99.99,,,-99.99,522.000000,,2013-10-17 19:30:00,
2013-10-17 13:22:00,53.0,16.0,-100.00,West,263,3.0,6.0,23,-99.99,,,-99.99,522.000000,,2013-10-17 20:22:00,
2013-10-17 13:30:00,55.0,19.0,-100.00,SW,218,2.0,6.0,24,-99.99,,,-99.99,506.000000,,2013-10-17 20:30:00,
2013-10-17 14:21:00,55.0,19.0,-100.00,SW,218,2.0,6.0,24,-99.99,,,-99.99,506.000000,,2013-10-17 21:21:00,
2013-10-17 14:30:00,56.0,20.0,-100.00,South,190,3.0,7.0,24,-99.99,,,-99.99,444.000000,,2013-10-17 21:30:00,
2013-10-17 15:24:00,56.0,20.0,-100.00,South,190,3.0,7.0,24,-99.99,,,-99.99,444.000000,,2013-10-17 22:24:00,
2013-10-17 15:30:00,56.0,23.0,-100.00,SSE,166,3.0,6.0,27,-99.99,,,-99.99,78.000000,,2013-10-17 22:30:00,
2013-10-17 16:22:00,56.0,23.0,-100.00,SSE,166,3.0,6.0,27,-99.99,,,-99.99,78.000000,,2013-10-17 23:22:00,
2013-10-17 17:30:00,51.0,20.0,-100.00,NW,307,1.0,3.0,29,-99.99,,,-99.99,15.000000,,2013-10-18 00:30:00,
2013-10-17 18:21:00,51.0,20.0,-100.00,NW,307,1.0,3.0,29,-99.99,,,-99.99,15.000000,,2013-10-18 01:21:00,
2013-10-17 18:30:00,48.0,21.0,-100.00,NW,318,2.0,3.0,34,-99.99,,,-99.99,1.000000,,2013-10-18 01:30:00,
2013-10-17 19:22:00,48.0,21.0,-100.00,NW,318,2.0,3.0,34,-99.99,,,-99.99,1.000000,,2013-10-18 02:22:00,
2013-10-17 19:30:00,47.0,18.0,-100.00,ENE,63,2.0,5.0,31,-99.99,,,-99.99,0.000000,,2013-10-18 02:30:00,
2013-10-17 20:22:00,47.0,18.0,-100.00,ENE,63,2.0,5.0,31,-99.99,,,-99.99,0.000000,,2013-10-18 03:22:00,
2013-10-17 20:30:00,48.0,15.0,-100.00,NE,35,4.0,8.0,27,-99.99,,,-99.99,0.000000,,2013-10-18 03:30:00,
2013-10-17 21:24:00,48.0,15.0,-100.00,NE,35,4.0,8.0,27,-99.99,,,-99.99,0.000000,,2013-10-18 04:24:00,
2013-10-17 21:30:00,47.0,13.0,-100.00,NE,38,4.0,9.0,25,-99.99,,,-99.99,0.000000,,2013-10-18 04:30:00,
2013-10-17 22:22:00,47.0,13.0,-100.00,NE,38,4.0,9.0,25,-99.99,,,-99.99,0.000000,,2013-10-18 05:22:00,
2013-10-17 22:30:00,47.0,12.0,-100.00,North,7,6.0,15.0,24,-99.99,,,-99.99,0.000000,,2013-10-18 05:30:00,
2013-10-17 23:21:00,47.0,12.0,-100.00,North,7,6.0,15.0,24,-99.99,,,-99.99,0.000000,,2013-10-18 06:21:00,
2013-10-17 23:30:00,46.0,10.0,-100.00,NNE,26,3.0,7.0,23,-99.99,,,-99.99,0.000000,,2013-10-18 06:30:00,